Time,TemperatureF,DewpointF,PressureIn,WindDirection,WindDirectionDegrees,WindSpeedMPH,WindSpeedGustMPH,Humidity,HourlyPrecipIn,Conditions,Clouds,dailyrainin,SoftwareType,DateUTC
2013-01-29 00:02:00,54.1,49.8,30.08,ESE,118,1.0,2.0,85,0.00,,,0.23,meteohub,2013-01-29 05:02:00,
2013-01-29 00:03:00,54.1,49.8,30.08,ENE,75,0.0,2.0,85,0.00,,,0.23,meteohub,2013-01-29 05:03:00,
2013-01-29 00:09:00,54.1,49.8,30.08,South,178,0.0,2.0,85,0.00,,,0.00,meteohub,2013-01-29 05:09:00,
2013-01-29 00:12:00,54.1,49.8,30.08,NE,48,2.0,3.0,85,0.00,,,0.00,meteohub,2013-01-29 05:12:00,
2013-01-29 00:16:00,54.1,49.8,30.08,NNE,22,2.0,3.0,85,0.00,,,0.00,meteohub,2013-01-29 05:16:00,
2013-01-29 00:22:00,54.3,49.8,30.08,NW,321,0.0,5.0,85,0.00,,,0.00,meteohub,2013-01-29 05:22:00,
2013-01-29 00:27:00,54.1,49.8,30.08,NW,321,1.0,3.0,85,0.00,,,0.00,meteohub,2013-01-29 05:27:00,
2013-01-29 00:32:00,54.1,49.8,30.08,NW,304,0.0,3.0,85,0.00,,,0.00,meteohub,2013-01-29 05:32:00,
2013-01-29 00:37:00,54.0,49.8,30.08,NW,315,0.0,3.0,86,0.00,,,0.00,meteohub,2013-01-29 05:37:00,
2013-01-29 00:43:00,54.0,49.8,30.08,NW,324,0.0,3.0,86,0.00,,,0.00,meteohub,2013-01-29 05:43:00,
2013-01-29 00:49:00,54.0,49.8,30.08,SW,219,1.0,3.0,86,0.00,,,0.00,meteohub,2013-01-29 05:49:00,
2013-01-29 00:55:00,54.1,50.0,30.07,SSW,193,0.0,5.0,86,0.00,,,0.00,meteohub,2013-01-29 05:55:00,
2013-01-29 01:01:00,54.1,50.0,30.07,WNW,295,2.0,5.0,86,0.00,,,0.00,meteohub,2013-01-29 06:01:00,
2013-01-29 01:07:00,54.1,50.0,30.07,ESE,117,0.0,3.0,86,0.00,,,0.00,meteohub,2013-01-29 06:07:00,
2013-01-29 01:12:00,54.3,50.2,30.07,ESE,109,2.0,3.0,86,0.00,,,0.00,meteohub,2013-01-29 06:12:00,
2013-01-29 01:17:00,54.5,50.4,30.07,South,169,1.0,2.0,86,0.00,,,0.00,meteohub,2013-01-29 06:17:00,
2013-01-29 01:22:00,54.5,50.4,30.07,ESE,118,0.0,4.0,86,0.00,,,0.00,meteohub,2013-01-29 06:22:00,
2013-01-29 01:27:00,54.5,50.4,30.07,ESE,104,1.0,4.0,86,0.00,,,0.00,meteohub,2013-01-29 06:27:00,
2013-01-29 01:32:00,54.5,50.4,30.08,ESE,121,2.0,4.0,86,0.00,,,0.00,meteohub,2013-01-29 06:32:00,
2013-01-29 01:37:00,54.5,50.4,30.08,East,99,0.0,3.0,86,0.00,,,0.00,meteohub,2013-01-29 06:37:00,
2013-01-29 01:42:00,54.7,50.5,30.08,East,93,1.0,3.0,86,0.00,,,0.00,meteohub,2013-01-29 06:42:00,
2013-01-29 01:47:00,54.7,50.2,30.08,South,174,0.0,3.0,85,0.00,,,0.00,meteohub,2013-01-29 06:47:00,
2013-01-29 01:52:00,54.7,50.2,30.08,NE,36,0.0,4.0,85,0.00,,,0.00,meteohub,2013-01-29 06:52:00,
2013-01-29 01:57:00,54.7,50.5,30.08,SSE,157,0.0,4.0,86,0.00,,,0.00,meteohub,2013-01-29 06:57:00,
2013-01-29 02:02:00,54.7,50.5,30.08,East,95,1.0,4.0,86,0.00,,,0.00,meteohub,2013-01-29 07:02:00,
2013-01-29 02:07:00,54.5,50.4,30.08,SSW,199,0.0,3.0,86,0.00,,,0.00,meteohub,2013-01-29 07:07:00,
2013-01-29 02:12:00,54.5,50.4,30.08,West,273,1.0,4.0,86,0.00,,,0.00,meteohub,2013-01-29 07:12:00,
2013-01-29 02:17:00,54.5,50.4,30.08,WNW,293,2.0,4.0,86,0.00,,,0.00,meteohub,2013-01-29 07:17:00,
2013-01-29 02:22:00,54.3,50.2,30.08,WNW,300,0.0,4.0,86,0.00,,,0.00,meteohub,2013-01-29 07:22:00,
2013-01-29 02:27:00,54.3,50.2,30.09,NE,46,0.0,4.0,86,0.00,,,0.00,meteohub,2013-01-29 07:27:00,
2013-01-29 02:32:00,54.3,50.2,30.09,ESE,121,1.0,4.0,86,0.00,,,0.00,meteohub,2013-01-29 07:32:00,
2013-01-29 02:37:00,54.3,50.2,30.09,ESE,113,1.0,4.0,86,0.00,,,0.00,meteohub,2013-01-29 07:37:00,
2013-01-29 02:42:00,54.3,50.2,30.09,ESE,117,0.0,3.0,86,0.00,,,0.00,meteohub,2013-01-29 07:42:00,
2013-01-29 02:47:00,54.5,50.4,30.08,South,171,1.0,3.0,86,0.00,,,0.00,meteohub,2013-01-29 07:47:00,
2013-01-29 02:52:00,54.7,50.5,30.08,ESE,103,1.0,4.0,86,0.00,,,0.00,meteohub,2013-01-29 07:52:00,
2013-01-29 02:57:00,54.5,50.4,30.08,SE,126,0.0,4.0,86,0.00,,,0.00,meteohub,2013-01-29 07:57:00,
2013-01-29 03:02:00,54.3,50.2,30.08,SE,127,2.0,4.0,86,0.00,,,0.00,meteohub,2013-01-29 08:02:00,
2013-01-29 03:07:00,54.3,50.2,30.08,ESE,114,1.0,3.0,86,0.00,,,0.00,meteohub,2013-01-29 08:07:00,
2013-01-29 03:12:00,54.3,50.2,30.08,ESE,103,2.0,3.0,86,0.00,,,0.00,meteohub,2013-01-29 08:12:00,
2013-01-29 03:17:00,54.3,50.2,30.08,ESE,121,1.0,3.0,86,0.00,,,0.00,meteohub,2013-01-29 08:17:00,
2013-01-29 03:22:00,54.1,50.4,30.08,SE,130,1.0,3.0,87,0.00,,,0.00,meteohub,2013-01-29 08:22:00,
2013-01-29 03:27:00,54.1,50.4,30.07,SSE,155,0.0,3.0,87,0.00,,,0.00,meteohub,2013-01-29 08:27:00,
2013-01-29 03:32:00,54.0,50.2,30.08,ESE,122,0.0,3.0,87,0.00,,,0.00,meteohub,2013-01-29 08:32:00,
2013-01-29 03:37:00,54.0,50.2,30.08,ESE,123,1.0,3.0,87,0.00,,,0.00,meteohub,2013-01-29 08:37:00,
2013-01-29 03:42:00,54.3,50.2,30.08,ENE,75,2.0,3.0,86,0.00,,,0.00,meteohub,2013-01-29 08:42:00,
2013-01-29 03:47:00,54.5,50.4,30.08,ESE,115,1.0,4.0,86,0.00,,,0.00,meteohub,2013-01-29 08:47:00,
2013-01-29 03:52:00,54.5,50.4,30.08,ESE,111,2.0,4.0,86,0.00,,,0.00,meteohub,2013-01-29 08:52:00,
2013-01-29 03:57:00,54.7,50.5,30.08,ESE,112,1.0,3.0,86,0.00,,,0.00,meteohub,2013-01-29 08:57:00,
2013-01-29 04:02:00,54.5,50.4,30.08,ESE,113,2.0,3.0,86,0.00,,,0.00,meteohub,2013-01-29 09:02:00,
2013-01-29 04:07:00,54.5,50.4,30.08,SE,132,0.0,3.0,86,0.00,,,0.00,meteohub,2013-01-29 09:07:00,
2013-01-29 04:12:00,54.3,50.2,30.08,East,90,2.0,3.0,86,0.00,,,0.00,meteohub,2013-01-29 09:12:00,
2013-01-29 04:17:00,54.3,50.2,30.08,SW,227,1.0,3.0,86,0.00,,,0.00,meteohub,2013-01-29 09:17:00,
2013-01-29 04:22:00,54.3,50.2,30.08,SE,138,0.0,3.0,86,0.00,,,0.00,meteohub,2013-01-29 09:22:00,
2013-01-29 04:27:00,54.3,50.2,30.08,SE,132,0.0,3.0,86,0.00,,,0.00,meteohub,2013-01-29 09:27:00,
2013-01-29 04:32:00,54.5,50.4,30.08,South,188,0.0,3.0,86,0.00,,,0.00,meteohub,2013-01-29 09:32:00,
2013-01-29 04:37:00,54.3,50.2,30.08,SSE,153,0.0,3.0,86,0.00,,,0.00,meteohub,2013-01-29 09:37:00,
2013-01-29 04:42:00,54.3,50.2,30.09,SE,130,0.0,4.0,86,0.00,,,0.00,meteohub,2013-01-29 09:42:00,
2013-01-29 04:47:00,54.5,50.4,30.09,SE,144,1.0,7.0,86,0.00,,,0.00,meteohub,2013-01-29 09:47:00,
2013-01-29 04:52:00,54.7,50.5,30.09,ESE,103,2.0,7.0,86,0.00,,,0.00,meteohub,2013-01-29 09:52:00,
2013-01-29 04:57:00,54.7,50.5,30.09,SE,144,1.0,5.0,86,0.00,,,0.00,meteohub,2013-01-29 09:57:00,
2013-01-29 05:02:00,54.7,50.5,30.09,South,179,0.0,3.0,86,0.00,,,0.00,meteohub,2013-01-29 10:02:00,
2013-01-29 05:07:00,54.9,50.7,30.09,SSE,165,3.0,3.0,86,0.00,,,0.00,meteohub,2013-01-29 10:07:00,
2013-01-29 05:12:00,54.9,50.7,30.09,ESE,110,1.0,3.0,86,0.00,,,0.00,meteohub,2013-01-29 10:12:00,
2013-01-29 05:17:00,54.9,50.7,30.09,ESE,120,1.0,3.0,86,0.00,,,0.00,meteohub,2013-01-29 10:17:00,
2013-01-29 05:22:00,54.7,50.5,30.09,East,88,1.0,3.0,86,0.00,,,0.00,meteohub,2013-01-29 10:22:00,
2013-01-29 05:27:00,54.5,50.4,30.09,SE,146,0.0,3.0,86,0.00,,,0.00,meteohub,2013-01-29 10:27:00,
2013-01-29 05:32:00,54.3,50.2,30.08,ESE,121,1.0,2.0,86,0.00,,,0.00,meteohub,2013-01-29 10:32:00,
2013-01-29 05:37:00,54.1,50.4,30.09,ESE,116,2.0,2.0,87,0.00,,,0.00,meteohub,2013-01-29 10:37:00,
2013-01-29 05:42:00,54.1,50.4,30.09,ESE,112,0.0,3.0,87,0.00,,,0.00,meteohub,2013-01-29 10:42:00,
2013-01-29 05:47:00,54.1,50.4,30.09,ESE,112,0.0,3.0,87,0.00,,,0.00,meteohub,2013-01-29 10:47:00,
2013-01-29 05:52:00,54.1,50.4,30.09,ESE,113,0.0,3.0,87,0.00,,,0.00,meteohub,2013-01-29 10:52:00,
2013-01-29 05:57:00,54.1,50.4,30.09,SE,130,0.0,2.0,87,0.00,,,0.00,meteohub,2013-01-29 10:57:00,
2013-01-29 06:02:00,54.0,50.5,30.09,SE,135,0.0,2.0,88,0.00,,,0.00,meteohub,2013-01-29 11:02:00,
2013-01-29 06:07:00,54.0,50.5,30.09,ESE,115,0.0,2.0,88,0.00,,,0.00,meteohub,2013-01-29 11:07:00,
2013-01-29 06:12:00,54.0,50.5,30.09,ESE,121,0.0,1.0,88,0.00,,,0.00,meteohub,2013-01-29 11:12:00,
2013-01-29 06:17:00,54.1,50.7,30.09,ESE,122,0.0,0.0,88,0.00,,,0.00,meteohub,2013-01-29 11:17:00,
2013-01-29 06:22:00,54.1,50.7,30.09,SE,128,0.0,0.0,88,0.00,,,0.00,meteohub,2013-01-29 11:22:00,
2013-01-29 06:27:00,54.0,50.5,30.09,SE,128,0.0,0.0,88,0.00,,,0.00,meteohub,2013-01-29 11:27:00,
2013-01-29 06:32:00,54.0,50.7,30.08,SE,128,0.0,0.0,89,0.00,,,0.00,meteohub,2013-01-29 11:32:00,
2013-01-29 06:37:00,54.0,50.7,30.08,SE,133,0.0,1.0,89,0.00,,,0.00,meteohub,2013-01-29 11:37:00,
2013-01-29 06:42:00,54.0,50.7,30.08,SSE,167,2.0,2.0,89,0.00,,,0.00,meteohub,2013-01-29 11:42:00,
2013-01-29 06:47:00,53.8,50.5,30.08,SE,131,1.0,2.0,89,0.00,,,0.00,meteohub,2013-01-29 11:47:00,
2013-01-29 06:52:00,54.0,50.7,30.09,ESE,108,1.0,3.0,89,0.00,,,0.00,meteohub,2013-01-29 11:52:00,
2013-01-29 06:57:00,54.0,50.7,30.09,East,94,1.0,3.0,89,0.00,,,0.00,meteohub,2013-01-29 11:57:00,
2013-01-29 07:02:00,54.1,50.9,30.09,SE,132,1.0,3.0,89,0.00,,,0.00,meteohub,2013-01-29 12:02:00,
2013-01-29 07:07:00,54.1,50.7,30.09,SE,140,0.0,2.0,88,0.00,,,0.00,meteohub,2013-01-29 12:07:00,
2013-01-29 07:12:00,54.1,50.7,30.09,SE,132,0.0,2.0,88,0.00,,,0.00,meteohub,2013-01-29 12:12:00,
2013-01-29 07:17:00,54.1,50.7,30.09,SE,134,0.0,2.0,88,0.00,,,0.00,meteohub,2013-01-29 12:17:00,
2013-01-29 07:22:00,54.0,50.5,30.09,East,84,0.0,2.0,88,0.00,,,0.00,meteohub,2013-01-29 12:22:00,
2013-01-29 07:27:00,53.6,50.2,30.09,ESE,104,1.0,3.0,88,0.00,,,0.00,meteohub,2013-01-29 12:27:00,
2013-01-29 07:32:00,53.2,50.0,30.09,ESE,115,0.0,3.0,89,0.00,,,0.00,meteohub,2013-01-29 12:32:00,
2013-01-29 07:37:00,53.1,50.2,30.09,West,277,1.0,3.0,90,0.00,,,0.00,meteohub,2013-01-29 12:37:00,
2013-01-29 07:42:00,53.1,50.2,30.09,ESE,122,1.0,3.0,90,0.00,,,0.00,meteohub,2013-01-29 12:42:00,
2013-01-29 07:47:00,53.2,50.4,30.10,SE,124,0.0,3.0,90,0.00,,,0.00,meteohub,2013-01-29 12:47:00,
2013-01-29 07:52:00,53.2,50.0,30.10,ESE,123,1.0,3.0,89,0.00,,,0.00,meteohub,2013-01-29 12:52:00,
2013-01-29 07:57:00,53.2,50.0,30.10,SE,140,1.0,3.0,89,0.00,,,0.00,meteohub,2013-01-29 12:57:00,
2013-01-29 08:02:00,53.1,49.8,30.10,SE,140,0.0,3.0,89,0.00,,,0.00,meteohub,2013-01-29 13:02:00,
2013-01-29 08:07:00,52.5,49.5,30.11,ESE,104,0.0,3.0,89,0.00,,,0.00,meteohub,2013-01-29 13:07:00,
2013-01-29 08:12:00,52.5,49.6,30.10,ENE,71,2.0,3.0,90,0.00,,,0.00,meteohub,2013-01-29 13:12:00,
2013-01-29 08:17:00,52.5,49.6,30.11,East,98,1.0,3.0,90,0.00,,,0.00,meteohub,2013-01-29 13:17:00,
2013-01-29 08:22:00,52.7,50.2,30.10,SE,136,1.0,3.0,91,0.00,,,0.00,meteohub,2013-01-29 13:22:00,
2013-01-29 08:27:00,53.1,50.2,30.11,ESE,117,3.0,3.0,90,0.00,,,0.00,meteohub,2013-01-29 13:27:00,
2013-01-29 08:32:00,53.2,50.4,30.11,SE,128,2.0,3.0,90,0.00,,,0.00,meteohub,2013-01-29 13:32:00,
2013-01-29 08:37:00,53.4,50.5,30.11,SE,134,1.0,4.0,90,0.00,,,0.00,meteohub,2013-01-29 13:37:00,
2013-01-29 08:42:00,53.6,50.7,30.11,SSE,161,1.0,4.0,90,0.00,,,0.00,meteohub,2013-01-29 13:42:00,
2013-01-29 08:47:00,53.8,50.5,30.11,SE,125,0.0,4.0,89,0.00,,,0.00,meteohub,2013-01-29 13:47:00,
2013-01-29 08:52:00,54.0,50.7,30.11,ESE,113,0.0,3.0,89,0.00,,,0.00,meteohub,2013-01-29 13:52:00,
2013-01-29 08:57:00,54.1,50.9,30.11,ESE,114,0.0,2.0,89,0.00,,,0.00,meteohub,2013-01-29 13:57:00,
2013-01-29 09:02:00,54.3,50.9,30.11,ESE,119,0.0,2.0,88,0.00,,,0.00,meteohub,2013-01-29 14:02:00,
2013-01-29 09:07:00,54.3,50.9,30.11,ESE,121,1.0,2.0,88,0.00,,,0.00,meteohub,2013-01-29 14:07:00,
2013-01-29 09:12:00,54.5,51.1,30.11,ESE,122,0.0,2.0,88,0.00,,,0.00,meteohub,2013-01-29 14:12:00,
2013-01-29 09:17:00,54.5,51.1,30.10,ESE,122,0.0,2.0,88,0.00,,,0.00,meteohub,2013-01-29 14:17:00,
2013-01-29 09:22:00,54.1,50.4,30.11,WNW,301,0.0,2.0,87,0.00,,,0.00,meteohub,2013-01-29 14:22:00,
2013-01-29 09:27:00,53.6,50.2,30.11,ENE,61,1.0,2.0,88,0.00,,,0.00,meteohub,2013-01-29 14:27:00,
2013-01-29 09:32:00,53.2,50.0,30.11,East,84,1.0,2.0,89,0.00,,,0.00,meteohub,2013-01-29 14:32:00,
2013-01-29 09:37:00,53.2,50.0,30.11,NW,312,0.0,3.0,89,0.00,,,0.00,meteohub,2013-01-29 14:37:00,
2013-01-29 09:42:00,53.1,50.2,30.11,ESE,108,3.0,3.0,90,0.00,,,0.00,meteohub,2013-01-29 14:42:00,
2013-01-29 09:47:00,53.2,50.4,30.11,West,271,1.0,3.0,90,0.00,,,0.00,meteohub,2013-01-29 14:47:00,
2013-01-29 09:52:00,53.4,50.5,30.11,SSE,155,1.0,3.0,90,0.00,,,0.00,meteohub,2013-01-29 14:52:00,
2013-01-29 09:57:00,53.4,50.2,30.11,East,83,0.0,3.0,89,0.00,,,0.00,meteohub,2013-01-29 14:57:00,
2013-01-29 10:02:00,53.4,50.2,30.11,ESE,123,1.0,2.0,89,0.00,,,0.00,meteohub,2013-01-29 15:02:00,
2013-01-29 10:07:00,53.4,50.5,30.11,ESE,120,0.0,2.0,90,0.00,,,0.00,meteohub,2013-01-29 15:07:00,
2013-01-29 10:12:00,53.8,50.9,30.11,ESE,123,0.0,2.0,90,0.00,,,0.00,meteohub,2013-01-29 15:12:00,
2013-01-29 10:17:00,54.0,51.1,30.11,SE,138,0.0,2.0,90,0.00,,,0.00,meteohub,2013-01-29 15:17:00,
2013-01-29 10:22:00,54.1,50.9,30.11,SE,138,0.0,2.0,89,0.00,,,0.00,meteohub,2013-01-29 15:22:00,
2013-01-29 10:27:00,53.8,50.5,30.11,NNW,338,1.0,3.0,89,0.00,,,0.00,meteohub,2013-01-29 15:27:00,
2013-01-29 10:32:00,53.4,50.5,30.12,NW,313,1.0,3.0,90,0.00,,,0.00,meteohub,2013-01-29 15:32:00,
2013-01-29 10:37:00,53.2,50.4,30.12,WNW,290,3.0,4.0,90,0.00,,,0.00,meteohub,2013-01-29 15:37:00,
2013-01-29 10:42:00,53.2,50.4,30.12,SSE,156,0.0,4.0,90,0.00,,,0.00,meteohub,2013-01-29 15:42:00,
2013-01-29 10:47:00,53.4,50.5,30.11,SE,140,0.0,4.0,90,0.00,,,0.00,meteohub,2013-01-29 15:47:00,
2013-01-29 10:52:00,53.8,50.9,30.11,SE,129,1.0,3.0,90,0.00,,,0.00,meteohub,2013-01-29 15:52:00,
2013-01-29 10:57:00,54.1,51.3,30.11,SE,128,0.0,2.0,90,0.00,,,0.00,meteohub,2013-01-29 15:57:00,
2013-01-29 11:02:00,54.5,51.6,30.10,SE,128,0.0,2.0,90,0.00,,,0.00,meteohub,2013-01-29 16:02:00,
2013-01-29 11:07:00,55.0,51.8,30.10,SE,129,0.0,2.0,89,0.00,,,0.00,meteohub,2013-01-29 16:07:00,
2013-01-29 11:12:00,55.6,52.2,30.11,SE,129,0.0,2.0,88,0.00,,,0.00,meteohub,2013-01-29 16:12:00,
2013-01-29 11:17:00,55.9,52.7,30.10,SE,128,0.0,2.0,89,0.00,,,0.00,meteohub,2013-01-29 16:17:00,
2013-01-29 11:22:00,56.3,52.9,30.10,SE,132,0.0,1.0,88,0.00,,,0.00,meteohub,2013-01-29 16:22:00,
2013-01-29 11:27:00,56.7,52.9,30.09,SE,131,0.0,1.0,87,0.00,,,0.00,meteohub,2013-01-29 16:27:00,
2013-01-29 11:32:00,57.6,53.4,30.09,SE,142,0.0,0.0,86,0.00,,,0.00,meteohub,2013-01-29 16:32:00,
2013-01-29 11:37:00,58.5,53.6,30.09,WSW,242,0.0,0.0,84,0.00,,,0.00,meteohub,2013-01-29 16:37:00,
2013-01-29 11:42:00,58.8,53.4,30.08,WSW,248,1.0,0.0,82,0.00,,,0.00,meteohub,2013-01-29 16:42:00,
2013-01-29 11:47:00,59.4,53.8,30.08,SE,135,1.0,3.0,82,0.00,,,0.00,meteohub,2013-01-29 16:47:00,
2013-01-29 11:52:00,59.9,54.1,30.08,East,98,1.0,3.0,81,0.00,,,0.00,meteohub,2013-01-29 16:52:00,
2013-01-29 11:57:00,60.6,54.5,30.07,SSE,157,0.0,3.0,80,0.00,,,0.00,meteohub,2013-01-29 16:57:00,
2013-01-29 12:02:00,61.3,54.1,30.07,West,267,1.0,3.0,77,0.00,,,0.00,meteohub,2013-01-29 17:02:00,
2013-01-29 12:07:00,61.7,54.1,30.06,SSW,207,0.0,3.0,76,0.00,,,0.00,meteohub,2013-01-29 17:07:00,
2013-01-29 12:12:00,62.4,54.7,30.06,SE,134,1.0,3.0,76,0.00,,,0.00,meteohub,2013-01-29 17:12:00,
2013-01-29 12:17:00,63.1,55.4,30.05,WNW,294,2.0,3.0,76,0.00,,,0.00,meteohub,2013-01-29 17:17:00,
2013-01-29 12:22:00,63.7,54.9,30.05,South,169,1.0,3.0,73,0.00,,,0.00,meteohub,2013-01-29 17:22:00,
2013-01-29 12:27:00,64.0,55.2,30.04,WSW,242,0.0,5.0,73,0.00,,,0.00,meteohub,2013-01-29 17:27:00,
2013-01-29 12:32:00,64.4,55.6,30.05,NNW,334,0.0,5.0,73,0.00,,,0.00,meteohub,2013-01-29 17:32:00,
2013-01-29 12:37:00,64.6,55.4,30.04,South,181,2.0,5.0,72,0.00,,,0.00,meteohub,2013-01-29 17:37:00,
2013-01-29 12:42:00,64.8,55.2,30.04,South,175,1.0,4.0,71,0.00,,,0.00,meteohub,2013-01-29 17:42:00,
2013-01-29 12:47:00,64.9,54.9,30.03,SE,125,1.0,4.0,70,0.00,,,0.00,meteohub,2013-01-29 17:47:00,
2013-01-29 12:52:00,64.9,54.5,30.03,ESE,115,1.0,6.0,69,0.00,,,0.00,meteohub,2013-01-29 17:52:00,
2013-01-29 12:57:00,65.5,55.4,30.03,SW,218,0.0,6.0,70,0.00,,,0.00,meteohub,2013-01-29 17:57:00,
2013-01-29 13:02:00,65.8,55.4,30.02,East,101,1.0,6.0,69,0.00,,,0.00,meteohub,2013-01-29 18:02:00,
2013-01-29 13:08:00,66.6,54.9,30.02,East,93,3.0,6.0,66,0.00,,,0.00,meteohub,2013-01-29 18:08:00,
2013-01-29 13:15:00,67.3,55.0,30.02,East,91,0.0,6.0,65,0.00,,,0.00,meteohub,2013-01-29 18:15:00,
2013-01-29 13:21:00,67.6,55.9,30.01,NNW,336,3.0,6.0,66,0.00,,,0.00,meteohub,2013-01-29 18:21:00,
2013-01-29 13:27:00,67.5,54.9,30.01,NNW,333,0.0,6.0,64,0.00,,,0.00,meteohub,2013-01-29 18:27:00,
2013-01-29 13:32:00,67.8,54.7,30.01,NNW,340,1.0,6.0,63,0.00,,,0.00,meteohub,2013-01-29 18:32:00,
2013-01-29 13:37:00,68.0,54.9,30.01,WNW,294,0.0,7.0,63,0.00,,,0.00,meteohub,2013-01-29 18:37:00,
2013-01-29 13:42:00,68.4,54.9,30.01,NNW,330,3.0,7.0,62,0.00,,,0.00,meteohub,2013-01-29 18:42:00,
2013-01-29 13:47:00,68.5,55.0,30.01,NNW,329,2.0,7.0,62,0.00,,,0.00,meteohub,2013-01-29 18:47:00,
2013-01-29 13:52:00,68.5,54.1,30.00,SE,141,1.0,4.0,60,0.00,,,0.00,meteohub,2013-01-29 18:52:00,
2013-01-29 13:57:00,68.9,54.0,30.00,East,99,1.0,6.0,59,0.00,,,0.00,meteohub,2013-01-29 18:57:00,
2013-01-29 14:02:00,68.7,53.4,29.99,South,182,3.0,8.0,58,0.00,,,0.00,meteohub,2013-01-29 19:02:00,
2013-01-29 14:07:00,68.5,53.6,29.99,SE,138,4.0,8.0,59,0.00,,,0.00,meteohub,2013-01-29 19:07:00,
2013-01-29 14:12:00,68.5,53.2,29.99,SSW,202,1.0,8.0,58,0.00,,,0.00,meteohub,2013-01-29 19:12:00,
2013-01-29 14:17:00,68.9,54.0,29.99,SE,138,1.0,7.0,59,0.00,,,0.00,meteohub,2013-01-29 19:17:00,
2013-01-29 14:22:00,69.3,54.9,29.99,SSE,147,0.0,5.0,60,0.00,,,0.00,meteohub,2013-01-29 19:22:00,
2013-01-29 14:27:00,69.6,53.2,29.98,SW,233,2.0,3.0,56,0.00,,,0.00,meteohub,2013-01-29 19:27:00,
2013-01-29 14:32:00,69.8,53.4,29.98,SE,130,0.0,8.0,56,0.00,,,0.00,meteohub,2013-01-29 19:32:00,
2013-01-29 14:37:00,69.6,53.2,29.98,SSW,212,0.0,8.0,56,0.00,,,0.00,meteohub,2013-01-29 19:37:00,
2013-01-29 14:42:00,69.4,53.1,29.98,SSE,165,1.0,8.0,56,0.00,,,0.00,meteohub,2013-01-29 19:42:00,
2013-01-29 14:47:00,69.3,52.9,29.98,ESE,115,2.0,7.0,56,0.00,,,0.00,meteohub,2013-01-29 19:47:00,
2013-01-29 14:52:00,69.4,53.6,29.98,SSW,211,0.0,7.0,57,0.00,,,0.00,meteohub,2013-01-29 19:52:00,
2013-01-29 14:57:00,69.4,53.6,29.98,SE,132,0.0,7.0,57,0.00,,,0.00,meteohub,2013-01-29 19:57:00,
2013-01-29 15:02:00,69.4,54.5,29.99,SE,124,0.0,3.0,59,0.00,,,0.00,meteohub,2013-01-29 20:02:00,
2013-01-29 15:06:00,69.6,53.8,29.98,SSE,153,2.0,3.0,57,0.00,,,0.00,meteohub,2013-01-29 20:06:00,
2013-01-29 15:12:00,69.8,53.4,29.98,SSE,159,2.0,3.0,56,0.00,,,0.00,meteohub,2013-01-29 20:12:00,
2013-01-29 15:17:00,70.0,53.6,29.98,SSE,164,0.0,3.0,56,0.00,,,0.00,meteohub,2013-01-29 20:17:00,
2013-01-29 15:22:00,70.0,53.6,29.98,South,178,0.0,3.0,56,0.00,,,0.00,meteohub,2013-01-29 20:22:00,
2013-01-29 15:27:00,70.0,53.1,29.98,ESE,104,0.0,3.0,55,0.00,,,0.00,meteohub,2013-01-29 20:27:00,
2013-01-29 15:32:00,70.2,53.2,29.98,SSE,153,0.0,3.0,55,0.00,,,0.00,meteohub,2013-01-29 20:32:00,
2013-01-29 15:37:00,70.3,52.9,29.98,SSE,168,1.0,3.0,54,0.00,,,0.00,meteohub,2013-01-29 20:37:00,
2013-01-29 15:42:00,70.5,53.1,29.97,SSW,192,3.0,3.0,54,0.00,,,0.00,meteohub,2013-01-29 20:42:00,
2013-01-29 15:47:00,70.3,52.9,29.98,ESE,110,1.0,6.0,54,0.00,,,0.00,meteohub,2013-01-29 20:47:00,
2013-01-29 15:52:00,70.3,52.9,29.97,South,186,0.0,6.0,54,0.00,,,0.00,meteohub,2013-01-29 20:52:00,
2013-01-29 15:57:00,70.3,52.9,29.97,SSE,155,0.0,6.0,54,0.00,,,0.00,meteohub,2013-01-29 20:57:00,
2013-01-29 16:02:00,70.5,52.5,29.96,SE,127,2.0,4.0,53,0.00,,,0.00,meteohub,2013-01-29 21:02:00,
2013-01-29 16:07:00,70.7,53.2,29.96,SE,130,1.0,5.0,54,0.00,,,0.00,meteohub,2013-01-29 21:07:00,
2013-01-29 16:12:00,70.5,52.5,29.97,SSE,151,0.0,5.0,53,0.00,,,0.00,meteohub,2013-01-29 21:12:00,
2013-01-29 16:17:00,70.3,52.3,29.96,SE,126,1.0,5.0,53,0.00,,,0.00,meteohub,2013-01-29 21:17:00,
2013-01-29 16:22:00,70.2,52.7,29.96,SE,138,0.0,5.0,54,0.00,,,0.00,meteohub,2013-01-29 21:22:00,
2013-01-29 16:27:00,69.8,52.9,29.96,SSE,155,1.0,5.0,55,0.00,,,0.00,meteohub,2013-01-29 21:27:00,
2013-01-29 16:32:00,69.6,52.7,29.96,East,92,0.0,3.0,55,0.00,,,0.00,meteohub,2013-01-29 21:32:00,
2013-01-29 16:37:00,69.4,52.5,29.96,South,169,0.0,3.0,55,0.00,,,0.00,meteohub,2013-01-29 21:37:00,
2013-01-29 16:42:00,69.1,52.7,29.96,SE,140,1.0,4.0,56,0.00,,,0.00,meteohub,2013-01-29 21:42:00,
2013-01-29 16:47:00,68.7,52.9,29.96,SSW,194,2.0,4.0,57,0.00,,,0.00,meteohub,2013-01-29 21:47:00,
2013-01-29 16:52:00,68.4,53.1,29.96,ESE,119,1.0,4.0,58,0.00,,,0.00,meteohub,2013-01-29 21:52:00,
2013-01-29 16:57:00,68.0,53.1,29.96,SSE,165,2.0,4.0,59,0.00,,,0.00,meteohub,2013-01-29 21:57:00,
2013-01-29 17:02:00,67.8,53.4,29.96,SE,143,0.0,4.0,60,0.00,,,0.00,meteohub,2013-01-29 22:02:00,
2013-01-29 17:07:00,67.6,53.2,29.96,ESE,121,0.0,3.0,60,0.00,,,0.00,meteohub,2013-01-29 22:07:00,
2013-01-29 17:12:00,67.5,53.1,29.96,SSE,159,1.0,3.0,60,0.00,,,0.00,meteohub,2013-01-29 22:12:00,
2013-01-29 17:17:00,67.3,53.4,29.96,ENE,57,1.0,5.0,61,0.00,,,0.00,meteohub,2013-01-29 22:17:00,
2013-01-29 17:22:00,66.9,53.1,29.96,SE,124,2.0,5.0,61,0.00,,,0.00,meteohub,2013-01-29 22:22:00,
2013-01-29 17:27:00,66.7,53.2,29.96,ESE,109,2.0,5.0,62,0.00,,,0.00,meteohub,2013-01-29 22:27:00,
2013-01-29 17:32:00,66.7,53.2,29.95,SE,146,0.0,5.0,62,0.00,,,0.00,meteohub,2013-01-29 22:32:00,
2013-01-29 17:37:00,66.6,53.1,29.95,SSE,159,1.0,5.0,62,0.00,,,0.00,meteohub,2013-01-29 22:37:00,
2013-01-29 17:42:00,66.6,53.1,29.95,SSE,155,0.0,4.0,62,0.00,,,0.00,meteohub,2013-01-29 22:42:00,
2013-01-29 17:47:00,66.6,53.1,29.95,SSW,209,0.0,4.0,62,0.00,,,0.00,meteohub,2013-01-29 22:47:00,
2013-01-29 17:52:00,66.4,52.9,29.95,SE,126,2.0,4.0,62,0.00,,,0.00,meteohub,2013-01-29 22:52:00,
2013-01-29 17:57:00,66.4,52.9,29.94,ENE,69,2.0,4.0,62,0.00,,,0.00,meteohub,2013-01-29 22:57:00,
2013-01-29 18:02:00,66.0,53.1,29.94,SSE,157,3.0,4.0,63,0.00,,,0.00,meteohub,2013-01-29 23:02:00,
2013-01-29 18:07:00,66.0,53.1,29.95,North,355,1.0,4.0,63,0.00,,,0.00,meteohub,2013-01-29 23:07:00,
2013-01-29 18:12:00,65.8,52.9,29.94,East,84,1.0,6.0,63,0.00,,,0.00,meteohub,2013-01-29 23:12:00,
2013-01-29 18:17:00,66.0,53.1,29.94,NE,51,2.0,6.0,63,0.00,,,0.00,meteohub,2013-01-29 23:17:00,
2013-01-29 18:22:00,65.8,52.9,29.94,SSW,200,2.0,6.0,63,0.00,,,0.00,meteohub,2013-01-29 23:22:00,
2013-01-29 18:29:00,65.8,52.9,29.94,East,86,2.0,6.0,63,0.00,,,0.00,meteohub,2013-01-29 23:29:00,
2013-01-29 18:35:00,66.0,53.1,29.94,ESE,108,3.0,6.0,63,0.00,,,0.00,meteohub,2013-01-29 23:35:00,
2013-01-29 18:41:00,65.8,52.9,29.94,WNW,300,3.0,8.0,63,0.00,,,0.00,meteohub,2013-01-29 23:41:00,
2013-01-29 18:47:00,65.8,52.9,29.94,West,279,2.0,8.0,63,0.00,,,0.00,meteohub,2013-01-29 23:47:00,
2013-01-29 18:52:00,65.8,52.9,29.94,SSE,162,1.0,7.0,63,0.00,,,0.00,meteohub,2013-01-29 23:52:00,
2013-01-29 18:57:00,65.8,52.9,29.94,ESE,119,1.0,7.0,63,0.00,,,0.00,meteohub,2013-01-29 23:57:00,
2013-01-29 19:02:00,65.7,53.2,29.94,ESE,103,3.0,5.0,64,0.00,,,0.00,meteohub,2013-01-30 00:02:00,
2013-01-29 19:07:00,65.7,53.2,29.93,SE,140,3.0,5.0,64,0.00,,,0.00,meteohub,2013-01-30 00:07:00,
2013-01-29 19:12:00,65.7,53.2,29.93,South,184,0.0,5.0,64,0.00,,,0.00,meteohub,2013-01-30 00:12:00,
2013-01-29 19:17:00,65.5,53.1,29.93,East,98,1.0,5.0,64,0.00,,,0.00,meteohub,2013-01-30 00:17:00,
2013-01-29 19:22:00,65.5,53.1,29.93,SSW,192,1.0,5.0,64,0.00,,,0.00,meteohub,2013-01-30 00:22:00,
2013-01-29 19:27:00,65.5,53.1,29.94,SE,132,1.0,6.0,64,0.00,,,0.00,meteohub,2013-01-30 00:27:00,
2013-01-29 19:32:00,65.5,53.1,29.93,SE,130,0.0,6.0,64,0.00,,,0.00,meteohub,2013-01-30 00:32:00,
2013-01-29 19:37:00,65.5,53.1,29.93,East,94,1.0,7.0,64,0.00,,,0.00,meteohub,2013-01-30 00:37:00,
2013-01-29 19:42:00,65.5,53.1,29.93,ESE,102,2.0,7.0,64,0.00,,,0.00,meteohub,2013-01-30 00:42:00,
2013-01-29 19:47:00,65.5,53.1,29.93,ESE,114,3.0,7.0,64,0.00,,,0.00,meteohub,2013-01-30 00:47:00,
2013-01-29 19:52:00,65.5,53.1,29.93,SSE,148,4.0,6.0,64,0.00,,,0.00,meteohub,2013-01-30 00:52:00,
2013-01-29 19:57:00,65.8,52.9,29.94,South,170,1.0,8.0,63,0.00,,,0.00,meteohub,2013-01-30 00:57:00,
2013-01-29 20:03:00,65.7,53.2,29.93,SE,138,2.0,8.0,64,0.00,,,0.00,meteohub,2013-01-30 01:03:00,
2013-01-29 20:09:00,65.5,53.1,29.92,SE,134,3.0,8.0,64,0.00,,,0.00,meteohub,2013-01-30 01:09:00,
2013-01-29 20:15:00,65.7,52.7,29.92,SW,221,5.0,6.0,63,0.00,,,0.00,meteohub,2013-01-30 01:15:00,
2013-01-29 20:21:00,65.7,52.7,29.92,SW,214,1.0,8.0,63,0.00,,,0.00,meteohub,2013-01-30 01:21:00,
2013-01-29 20:27:00,65.7,52.7,29.93,North,0,1.0,12.0,63,0.00,,,0.00,meteohub,2013-01-30 01:27:00,
2013-01-29 20:32:00,65.5,52.5,29.92,ESE,123,3.0,12.0,63,0.00,,,0.00,meteohub,2013-01-30 01:32:00,
2013-01-29 20:37:00,65.5,52.5,29.92,ESE,111,2.0,12.0,63,0.00,,,0.00,meteohub,2013-01-30 01:37:00,
2013-01-29 20:42:00,65.5,53.1,29.92,ESE,106,2.0,10.0,64,0.00,,,0.00,meteohub,2013-01-30 01:42:00,
2013-01-29 20:47:00,65.3,52.9,29.92,SE,146,3.0,10.0,64,0.00,,,0.00,meteohub,2013-01-30 01:47:00,
2013-01-29 20:52:00,64.9,52.5,29.93,SE,135,2.0,10.0,64,0.00,,,0.00,meteohub,2013-01-30 01:52:00,
2013-01-29 20:57:00,64.8,52.3,29.93,ESE,115,2.0,7.0,64,0.00,,,0.00,meteohub,2013-01-30 01:57:00,
2013-01-29 21:04:00,64.2,52.2,29.93,SSE,167,3.0,5.0,65,0.00,,,0.00,meteohub,2013-01-30 02:04:00,
2013-01-29 21:10:00,64.0,52.5,29.93,SE,134,2.0,5.0,66,0.00,,,0.00,meteohub,2013-01-30 02:10:00,
2013-01-29 21:16:00,64.0,52.5,29.92,SE,132,0.0,6.0,66,0.00,,,0.00,meteohub,2013-01-30 02:16:00,
2013-01-29 21:22:00,63.9,52.3,29.93,ESE,116,3.0,6.0,66,0.00,,,0.00,meteohub,2013-01-30 02:22:00,
2013-01-29 21:27:00,63.7,52.2,29.92,ENE,76,3.0,6.0,66,0.00,,,0.00,meteohub,2013-01-30 02:27:00,
2013-01-29 21:32:00,63.5,52.0,29.92,NE,37,2.0,6.0,66,0.00,,,0.00,meteohub,2013-01-30 02:32:00,
2013-01-29 21:37:00,63.5,52.0,29.91,East,80,3.0,6.0,66,0.00,,,0.00,meteohub,2013-01-30 02:37:00,
2013-01-29 21:42:00,63.9,51.8,29.91,SE,146,4.0,6.0,65,0.00,,,0.00,meteohub,2013-01-30 02:42:00,
2013-01-29 21:47:00,63.9,51.8,29.91,ESE,103,1.0,6.0,65,0.00,,,0.00,meteohub,2013-01-30 02:47:00,
2013-01-29 21:52:00,63.9,51.8,29.91,SE,144,1.0,6.0,65,0.00,,,0.00,meteohub,2013-01-30 02:52:00,
2013-01-29 21:57:00,63.7,52.2,29.91,South,185,2.0,5.0,66,0.00,,,0.00,meteohub,2013-01-30 02:57:00,
2013-01-29 22:02:00,63.5,52.0,29.91,South,177,1.0,5.0,66,0.00,,,0.00,meteohub,2013-01-30 03:02:00,
2013-01-29 22:07:00,63.3,51.4,29.91,SSE,160,2.0,5.0,65,0.00,,,0.00,meteohub,2013-01-30 03:07:00,
2013-01-29 22:12:00,63.1,51.6,29.91,South,171,3.0,5.0,66,0.00,,,0.00,meteohub,2013-01-30 03:12:00,
2013-01-29 22:17:00,63.1,51.6,29.91,SE,128,1.0,5.0,66,0.00,,,0.00,meteohub,2013-01-30 03:17:00,
2013-01-29 22:22:00,63.0,51.4,29.92,South,183,2.0,5.0,66,0.00,,,0.00,meteohub,2013-01-30 03:22:00,
2013-01-29 22:27:00,62.4,50.9,29.91,South,169,1.0,5.0,66,0.00,,,0.00,meteohub,2013-01-30 03:27:00,
2013-01-29 22:32:00,62.1,50.9,29.91,SSE,163,1.0,4.0,67,0.00,,,0.00,meteohub,2013-01-30 03:32:00,
2013-01-29 22:37:00,61.7,50.7,29.91,SSE,167,1.0,4.0,67,0.00,,,0.00,meteohub,2013-01-30 03:37:00,
2013-01-29 22:42:00,61.5,50.9,29.91,SE,141,0.0,4.0,68,0.00,,,0.00,meteohub,2013-01-30 03:42:00,
2013-01-29 22:47:00,61.2,50.5,29.91,East,101,0.0,4.0,68,0.00,,,0.00,meteohub,2013-01-30 03:47:00,
2013-01-29 22:52:00,60.6,50.4,29.91,SE,137,1.0,3.0,69,0.00,,,0.00,meteohub,2013-01-30 03:52:00,
2013-01-29 22:57:00,60.4,50.2,29.90,SSE,163,3.0,3.0,69,0.00,,,0.00,meteohub,2013-01-30 03:57:00,
2013-01-29 23:02:00,60.6,50.0,29.90,SE,142,2.0,7.0,68,0.00,,,0.00,meteohub,2013-01-30 04:02:00,
2013-01-29 23:07:00,61.0,50.0,29.90,SE,124,2.0,7.0,67,0.00,,,0.00,meteohub,2013-01-30 04:07:00,
2013-01-29 23:12:00,61.3,49.8,29.90,SSE,156,4.0,7.0,66,0.00,,,0.00,meteohub,2013-01-30 04:12:00,
2013-01-29 23:17:00,61.7,49.8,29.90,ESE,103,1.0,8.0,65,0.00,,,0.00,meteohub,2013-01-30 04:17:00,
2013-01-29 23:22:00,61.7,49.8,29.90,ENE,74,1.0,8.0,65,0.00,,,0.00,meteohub,2013-01-30 04:22:00,
2013-01-29 23:27:00,61.2,49.6,29.90,SSW,193,1.0,6.0,66,0.00,,,0.00,meteohub,2013-01-30 04:27:00,
2013-01-29 23:32:00,61.0,49.1,29.90,ESE,123,1.0,5.0,65,0.00,,,0.00,meteohub,2013-01-30 04:32:00,
2013-01-29 23:37:00,61.2,49.3,29.90,SSE,155,1.0,5.0,65,0.00,,,0.00,meteohub,2013-01-30 04:37:00,
2013-01-29 23:42:00,61.3,49.1,29.89,South,172,0.0,4.0,64,0.00,,,0.00,meteohub,2013-01-30 04:42:00,
2013-01-29 23:47:00,61.5,48.7,29.89,SSE,160,2.0,7.0,63,0.00,,,0.00,meteohub,2013-01-30 04:47:00,
2013-01-29 23:52:00,61.5,48.7,29.89,East,100,5.0,7.0,63,0.00,,,0.00,meteohub,2013-01-30 04:52:00,
2013-01-29 23:57:00,61.3,48.6,29.89,ENE,75,0.0,7.0,63,0.00,,,0.00,meteohub,2013-01-30 04:57:00,